Location: Long Geng
(2.6167°N, 114.1333°E)
Time: 09:13:42
(UTC+00:00)

Ariane 44LP R/B - Pass Details

Date: 29 September 2021
Orbit: 477 x 17832 km, 3.6° (Epoch: 18 October)

Event Time Altitude Azimuth Distance (km) Brightness Sun altitude
Exits shadow 21:45:09 - 272° (W) 2,576 6.0 -7.2°
Reaches altitude 10° 21:45:22 10° 272° (W) 2,490 5.9 -7.2°
Maximum altitude 21:50:47 86° 0° (N) 1,614 5.7 -5.8°
Drops below altitude 10° 22:19:13 10° 89° (E) 10,905 12.3 1.3°
Sets 22:43:26 0° 90° (E) 16,425 13.4 7.3°
